FENGYUN 1C DEB, 30393

Orbit data source: Space-Track

FENGYUN 1C DEB, 30393 is space debris in SSO originally from a launch on Mon, 10 May 1999 UTC launched from the Taiyaun Space Center, China (TSC). Fengyun 1C debris stems from the Chinese weather satellite Fengyun-1C, which was intentionally destroyed by a Chinese anti-satellite missile in 2007. This event dramatically increased the amount of space debris, with thousands of trackable fragments posing hazards to satellites and human spaceflight. The Fengyun 1C debris cloud has become a focal point in discussions about space sustainability and the need for international regulations to prevent the creation of new debris.

Loading next visibility...
Identifier
30393, 1999-025ADG
Orbit
SSO
Country
Flag of CNCN / PRC
Related business
Manufacturer
Unknown
Mission
Spacecraft
Bus & Motor
Unknown
Mass
Unknown
Launch date (UTC)
1999-05-10 (27 years ago)
Launch vehicle
Unknown
Launch site
Taiyaun Space Center, China (TSC)
Object type
Payload
Rocket body
Debris
Shape & HBR
Unknown shape, 0.1 m
Radar Cross Section
Medium (>0.1 m² and <1 m²)

Expand to show TLE details & history
Last TLE update: 13 hours ago

TLE from 13 hours ago
0 FENGYUN 1C DEB
1 30393U 99025ADG 26208.17573832  .00000224  00000-0  18214-3 0  9994
2 30393  99.1335 270.5345 0070393 359.4578  62.1752 13.99062230994964
Epoch: 2026-07-27T04:13Z
TLE epoch observation values (Epoch: 2026-07-27T04:13:03.790Z)
Latitude
61.08811°
Longitude
-114.42641°
Altitude
883.799 km
Speed
7.428 km/s
True Right ascension
16h 54m 48s
True Declination
60° 56' 41"
Sunlit
Object was in daylight at epoch
Visualization orbit readout
Latitude
Unknown
Longitude
Unknown
Altitude
Unknown
Speed
Unknown
Apparent Right ascension
Unknown
Apparent Declination
Unknown
Sunlit
N/A
Visualization observer readout
Local Sidereal Time
06:24:49
Azimuth
Unknown
Elevation
Unknown
Doppler factor
Unknown
Orbital elements
Apogee altitude
945.444 km
Perigee altitude
843.059 km
Semi-major axis
7,272.388 km
Eccentricity
0.00704
Inclination
99.1335°
RAAN
270.5345°
Arg. of periapsis
359.4578°
True anomaly
62.8915°
Mean anomaly
62.1752°
Eccentric anomaly
62.53306°
Mean motion
3.49967 °/min
Orbital period
102.87 mins
BSTAR
0.00018214
Loading maneuver chart data...
Computing Atmospheric mass density...
Loading historical data...
Loading historical data...
Loading historical data...
Loading historical data...
Loading historical data...
Loading historical data...
Loading historical data...

Documentation

Showing up to 5 results
|